www.pogodaiklimat.ru

Погода и климат >> Архив погоды >> Туркменистан >> Шах-Сенем


ПОГОДА в Шах-Сенеме

  • Прогноз погоды в Шах-Сенеме
  • Монитор погоды в Шах-Сенеме

АРХИВ ПОГОДЫ в Шах-Сенеме

Время (UTC), дата Ветер
(напр.,м/с)
 
Видим.   Явления Облачность Т
(С)
Тd
(С)
f
(%)
Тe
(С)
Тes
(С)
Комфортность P
(гПа)
Po
(гПа)
Тmin
(С)
Tmax
(С)
R
(мм)
R24
(мм)
S
(см)
12 14.08 СЗ 5 10 км ясно +26.7 +8.2 31 +27 +30 жарко 1011.9 1004.2
15 14.08 З 2 10 км ясно +24.9 +7.6 33 +25 +25 комфорт 1012.0 1004.1 +27.2
18 14.08 З 2 10 км ясно +19.2 +6.4 43 +20 +20 1012.5 1004.5 +27.2
21 14.08 З 2 10 км ясно +17.6 +5.9 46 +18 +18 1012.5 1004.5
00 15.08 З 2 10 км ясно +16.0 +5.3 49 +16 +16 1012.8 1004.7
03 15.08 З 1 10 км 3/0
[Ci fib]
+18.6 +6.8 46 +20 +23 1013.7 1005.6 +15.6
06 15.08 З 2 10 км ясно +25.4 +8.6 34 +26 +39 жарко 1013.7 1005.8 +15.6
18 15.08 СВ 3 10 км 4/0
[Ac trans]
+20.5 +6.4 40 +22 +22 комфорт 1013.3 1005.2 +30.5
21 15.08 С 3 10 км ясно +18.8 +5.6 42 +19 +19 1013.8 1005.7
00 16.08 С 3 10 км ясно +15.9 +4.6 47 +16 +16 1014.6 1006.4
03 16.08 СВ 1 10 км ясно +18.3 +5.6 43 +20 +22 1015.4 1007.3 +15.5
06 16.08 В 3 10 км ясно +25.4 +7.6 32 +25 +36 комфорт 1015.9 1008.0 +15.5
09 16.08 В 4 10 км ясно +28.0 +8.2 29 +28 +39 жарко 1015.4 1007.6
12 16.08 В 4 10 км ясно +29.2 +8.5 27 +29 +33 жарко 1014.2 1006.4
15 16.08 В 2 10 км ясно +27.6 +7.8 29 +27 +27 жарко 1014.2 1006.4 +29.7
18 16.08 СВ 3 10 км ясно +20.6 +6.1 39 +22 +22 комфорт 1014.6 1006.5 +29.7
21 16.08 СВ 2 10 км ясно +18.6 +5.3 42 +19 +19 1014.8 1006.7
00 17.08 СВ 1 10 км ясно +16.0 +4.0 45 +17 +17 1014.1 1005.9
03 17.08 СВ 2 10 км ясно +19.6 +6.2 42 +21 +23 комфорт 1014.2 1006.1 +15.6
06 17.08 СВ 3 10 км ясно +29.4 +7.4 25 +28 +39 жарко 1014.1 1006.3 +15.6
09 17.08 СВ 3 10 км ясно +32.0 +7.7 22 +31 +44 жарко 1013.2 1005.5
12 17.08 СВ 2 10 км ясно +29.6 +6.7 24 +28 +34 жарко 1012.0 1004.3
15 17.08 СВ 2 10 км ясно +29.4 +6.5 24 +28 +28 жарко 1012.2 1004.5 +32.5
18 17.08 СВ 1 10 км ясно +22.0 +5.5 34 +22 +22 комфорт 1012.4 1004.5 +32.5
21 17.08 СВ 2 10 км ясно +19.8 +4.8 37 +21 +21 комфорт 1012.8 1004.8
00 18.08 СВ 2 10 км ясно +16.4 +4.0 44 +17 +17 1012.8 1004.7
03 18.08 СВ 1 10 км ясно +20.7 +5.9 38 +23 +25 комфорт 1013.6 1005.5 +16.0
09 18.08 В 4 10 км ясно +34.2 +8.6 21 +33 +44 жарко 1014.1 1006.4
12 18.08 В 3 10 км ясно +34.4 +8.9 21 +33 +38 жарко 1014.1 1006.4
15 18.08 В 3 10 км ясно +31.0 +7.7 23 +30 +30 жарко 1014.5 1006.7 +34.9
18 18.08 В 2 10 км ясно +21.8 +5.6 35 +22 +22 комфорт 1014.9 1007.0 +34.9
21 18.08 В 2 10 км ясно +20.0 +5.5 39 +21 +21 комфорт 1015.1 1007.0
00 19.08 В 1 10 км ясно +17.6 +4.8 43 +19 +19 1015.5 1007.4
03 19.08 В 2 10 км ясно +21.6 +6.2 37 +22 +24 комфорт 1016.4 1008.5 +17.2
09 19.08 В 9 10 км ясно +33.4 +8.5 22 +32 +34 жарко 1016.7 1009.0
12 19.08 В 6 10 км ясно +34.0 +8.8 21 +33 +35 жарко 1017.3 1009.6
15 19.08 СВ 3 10 км ясно +30.8 +7.7 24 +30 +30 жарко 1017.5 1009.7 +34.5
18 19.08 С 3 10 км ясно +22.9 +6.2 34 +23 +23 комфорт 1016.8 1008.9 +34.5
21 19.08 С 3 10 км ясно +21.9 +6.1 36 +23 +23 комфорт 1016.4 1008.5
00 20.08 СВ 3 10 км ясно +19.2 +5.5 41 +20 +20 1016.9 1008.8
03 20.08 СВ 3 10 км ясно +22.2 +6.2 35 +23 +24 комфорт 1017.1 1009.2 +18.8
06 20.08 В 5 10 км ясно +32.5 +7.8 22 +31 +38 жарко 1017.7 1010.0 +18.8
09 20.08 В 9 10 км ясно +34.9 +8.1 19 +33 +35 жарко 1017.5 1009.8
12 20.08 В 5 10 км ясно +36.0 +8.4 19 +34 +37 очень
жарко
1017.0 1009.3
15 20.08 СВ 3 10 км ясно +32.8 +7.7 21 +31 +31 жарко 1016.5 1008.8 +36.5
03 21.08 С 1 10 км ясно +21.6 +6.7 38 +22 +25 комфорт 1015.6 1007.7 +19.6

 

Местоположение метеостанции Шах-Сенем (Дашогузский велаят, Туркменистан): широта 41.58 долгота 58.72 высота над уровнем моря 62 м.

В архиве по умолчанию представлена погода в Шах-Сенеме за последнюю неделю. Архивные данные за месяц целиком и за предыдущие месяцы, начиная с января 2011 года, Вы можете получить, выбрав интересующий диапазон дат из раскрывающегося списка и нажав кнопку "Ввод!".


*Определитесь, кто Вы:
робот инопланетянин человек

Внимание! Время в таблицах - всемирное. Для получения местного времени необходимо прибавить поправку, которая равна 5 ч.

Смотрите также архив погоды в соседних городах и на ближайших метеорологических станциях:

Погода в Кенеургенче (Дашогузский велаят, Туркменистан) (87 км)
Погода в Дашогузе (Дашогузский велаят, Туркменистан) (93 км)
Погода в Екеже (Дашогузский велаят, Туркменистан) (100 км)
Погода в Тахиаташе (Каракалпакстан, Узбекистан) (117 км)
Погода в Нукусе (Каракалпакстан, Узбекистан) (122 км)
Погода в Тахтакупыре (Каракалпакстан, Узбекистан) (125 км)
Погода в Хиве (Хорезмская область, Узбекистан) (140 км)
Погода в Гурлене (Хорезмская область, Узбекистан) (142 км)
Погода в Ургенче (Хорезмская область, Узбекистан) (154 км)
Погода в Дервезе (Дашогузский велаят, Туркменистан) (157 км)

Пояснения к столбцам:

Ветер - указаны скорость ветра в м/с - средняя за 10 мин, порывы в срок и между сроками (в фигурных скобках) и направление, откуда дует ветер: С - северный, СВ - северо-восточный, В - восточный, ЮВ - юго-восточный, Ю - южный, ЮЗ - юго-западный, З - западный, СЗ - северо-западный.
Видимость - горизонтальная дальность видимости в метрах или километрах. При видимости от 1 до 10 км при отсутствии осадков обычно наблюдается дымка, при ухудшении видимости до 1 км и менее - туман. В сухую погоду видимость может ухудшаться дымом, пылью или мглою.
Явления - указаны атмосферные явления, наблюдавшиеся в срок или в последний час перед сроком; фигурными скобками обозначены явления, наблюдавшиеся между сроками (за 1-3 часа до срока); квадратными скобками обозначены град или гололедные отложения с указанием их диаметра в мм.
Облачность - указаны через наклонную черту общая и нижняя облачность в баллах и высота нижней границы облаков в метрах; квадратными скобками обозначены формы облаков: Ci - перистые, Cs - перисто-слоистые, Cc - перисто-кучевые, Ac - высококучевые, As - высокослоистые, Sc - слоисто-кучевые, Ns - слоисто-дождевые, Cu - кучевые, Cb - кучево-дождевые. Подробнее классификацию облаков см. в Атласе облаков (PDF).
T - Температура воздуха - температура, измеренная на высоте 2 м над землей.
Td - Температура точки росы - температура, при понижении до которой содержащийся в воздухе водяной пар достигнет насыщения.
f - Относительная влажность воздуха - влажноcть воздуха, измеренная на высоте 2 м над землей.
Te - Эффективная температура - температура, которую ощущает одетый по сезону человек в тени. Характеристика душности погоды. При расчете учитывается влияние влажности воздуха и скорости ветра на теплоощущения человека.
Tes - Эффективная температура на солнце - температура, которую ощущает человек, с поправкой на солнечный нагрев. Характеристика знойности погоды. Зависит от высоты солнца над горизонтом, облачности и скорости ветра. Ночью, в пасмурную погоду, а также при ветре 12 м/с и более поправка равна нулю.
P - Атмосферное давление - приведенное к уровню моря атмосферное давление.
Po - Атмосферное давление - измеренное на уровне метеостанции атмосферное давление.
Tmin - Минимальная температура - минимум температуры воздуха на высоте 2 м над землей.
Tmax - Максимальная температура - максимум температуры воздуха на высоте 2 м над землей.
R - Количество осадков - Количество выпавших осадков за период времени, мм. При наведении курсора мыши на число - период времени, за который выпало указанное количество осадков.
R24 - Количество осадков - Количество выпавших осадков за 24 часа, мм.
S - Снежный покров - Высота снежного покрова, см. При наведении курсора мыши на число - состояние снежного покрова и степень покрытия местности в баллах.